Wind_Speed
37 33 35 33 30 35 36 38 38 38 36 37 38 39 40 40 42 50 48 48 37 36 36 38 36 33 34 33 29 30 29 26 27 14 9 11 13 15 14 16 18 18 18
33 36 35 34 37 36 43 36 35 40 41 42 41 40 39 42 44 48 50 51 49 48 43 42 43 40 38 37 35 31 32 25 24 16 14 17 14 15 16 19 18 18 17
30 34 33 34 36 40 42 42 38 39 38 39 44 46 45 44 43 48 50 51 49 49 50 50 48 46 46 43 40 33 32 30 25 23 16 18 16 15 14 15 14 16 16
37 37 37 38 39 37 37 38 40 37 38 41 40 44 49 46 45 47 48 47 51 50 48 47 46 45 44 45 42 36 31 31 27 24 18 16 18 17 13 11 12 16 16
42 41 38 38 35 34 33 34 36 37 34 36 39 41 42 44 43 44 46 48 49 53 47 46 48 54 55 52 46 41 34 32 31 25 20 19 19 18 14 14 15 17 15
42 41 38 37 33 31 31 32 31 34 34 34 36 38 37 39 40 42 43 45 50 47 48 45 37 52 57 63 48 49 39 35 33 29 24 21 19 21 19 16 16 16 15
40 43 40 36 35 32 32 34 35 35 33 32 32 33 34 35 35 39 42 42 46 50 45 44 46 47 48 70 70 54 44 38 35 31 28 24 20 21 23 22 20 20 18
40 40 38 36 34 32 32 34 37 37 36 36 33 32 33 29 31 35 40 43 43 46 46 42 43 48 53 65 65 53 46 40 36 34 30 23 25 25 25 26 24 24 22
39 37 34 32 30 32 34 36 38 34 35 37 34 31 34 30 30 32 38 41 41 41 44 44 45 45 39 75 63 60 39 38 37 36 33 32 27 30 28 28 26 26 27
35 31 26 24 28 32 36 34 28 25 27 24 27 27 28 26 28 29 31 37 40 40 43 45 42 45 45 60 74 91 50 43 40 35 33 34 32 28 30 27 27 28 28
30 26 23 26 27 31 30 27 24 22 19 16 16 17 20 22 24 24 26 29 39 40 40 40 41 31 31 45 47 51 40 46 36 35 35 35 35 33 33 32 27 25 28
31 28 26 24 25 27 26 20 16 17 12 11 10 12 14 17 19 19 16 20 30 38 40 35 38 27 33 40 44 23 27 33 31 36 36 36 35 34 33 35 34 28 31
27 25 27 26 22 23 22 18 16 15 14 13 13 14 16 17 15 16 18 25 20 28 32 31 34 28 27 18 24 26 30 34 34 38 34 35 32 31 33 33 32 29 32
28 28 28 29 24 18 17 12 9 9 8 10 9 12 11 12 14 15 14 18 24 24 25 29 31 31 22 27 30 30 31 33 34 34 33 34 33 33 32 32 30 29 28
26 26 25 21 20 14 10 6 6 3 6 8 8 8 9 9 10 13 5 12 14 16 16 21 28 28 29 31 28 29 29 28 31 32 33 29 30 31 31 27 30 28 31
22 25 23 21 15 13 14 8 2 1 4 6 8 8 8 8 9 6 7 2 3 15 13 14 18 20 22 24 25 25 25 26 26 26 28 30 31 27 29 29 29 27 22
23 24 17 12 12 15 6 4 2 3 2 7 10 13 9 7 7 8 5 5 3 5 6 9 12 13 16 16 18 19 20 20 21 22 24 25 23 31 32 26 23 24 21
12 7 7 6 17 7 4 6 6 6 2 1 4 9 11 9 7 7 7 6 5 3 6 8 12 11 11 10 10 12 12 13 14 14 17 19 20 18 18 21 22 25 27
8 4 10 2 7 7 9 5 7 8 5 1 3 3 8 9 10 6 7 6 7 4 5 5 4 9 14 11 12 13 14 16 16 15 16 18 18 18 19 20 18 15 15
2 7 10 9 11 5 15 2 8 2 4 6 3 3 4 7 7 6 6 8 9 9 5 3 1 1 2 4 6 7 7 9 10 12 12 13 14 15 15 15 13 13 15
10 9 6 6 6 4 9 7 6 2 8 9 5 1 2 8 4 2 4 8 5 11 7 4 2 1 2 2 3 4 5 6 7 8 9 10 11 10 10 10 9 11 11
15 11 5 8 7 6 9 7 4 5 2 3 5 3 7 12 3 2 2 6 9 12 14 9 3 1 2 2 3 2 3 5 7 6 5 5 6 8 9 10 11 11 12
16 6 6 6 10 4 0 1 2 5 4 7 6 5 10 13 2 3 2 1 2 8 10 10 5 4 2 3 2 2 3 9 10 11 10 11 11 11 10 9 10 10 12
7 9 9 12 12 12 8 7 8 7 1 1 3 5 5 4 6 7 4 7 3 4 6 9 7 4 5 11 7 6 7 5 7 7 8 10 11 12 12 11 11 12 12
8 10 14 15 16 15 16 22 10 12 9 2 5 6 6 3 5 8 7 10 8 4 7 14 15 8 7 9 8 8 11 9 12 16 17 13 14 16 17 17 16 15 16
15 15 9 14 11 12 11 6 11 5 5 9 12 15 15 8 9 14 13 7 11 13 15 10 4 5 9 7 12 14 12 13 11 10 12 16 18 20 22 21 21 18 17
Wind_Direction
293 286 288 284 275 274 267 262 263 264 262 262 261 257 257 258 260 261 260 259 256 251 247 256 256 253 256 262 262 267 269 275 282 288 268 258 238 238 242 252 253 260 264
292 286 284 285 282 282 280 274 268 265 263 261 260 257 258 260 257 259 262 263 260 256 249 251 254 256 255 260 263 263 269 267 272 266 266 270 254 248 249 251 250 254 261
299 293 291 288 281 278 277 275 273 268 263 261 259 256 254 255 259 257 258 260 260 258 256 254 249 253 254 253 256 260 263 265 266 269 260 261 267 260 248 250 255 257 263
307 298 297 289 285 280 278 277 278 277 270 265 261 259 254 254 254 256 256 257 257 256 257 258 255 251 250 254 249 251 254 256 258 261 261 258 261 263 268 266 256 256 259
305 302 297 293 286 282 278 279 280 279 279 272 264 264 261 257 254 256 258 253 254 256 257 258 256 264 258 252 246 247 245 247 253 252 255 251 258 262 260 254 255 255 256
300 301 292 289 285 279 278 280 283 283 278 274 269 268 265 263 259 255 257 256 252 254 255 258 252 254 264 247 241 244 238 240 243 247 246 247 251 260 261 256 253 254 257
298 297 293 292 286 281 276 278 283 284 278 276 269 268 269 268 263 257 256 257 253 249 251 254 249 257 261 243 249 236 234 231 234 241 243 241 245 253 259 258 252 246 251
300 296 294 294 292 285 283 285 286 285 279 269 265 272 266 272 269 261 255 254 253 250 248 250 249 265 254 237 237 226 225 226 228 235 237 237 243 245 254 259 258 260 255
302 296 293 292 292 291 293 293 290 287 282 271 264 267 272 271 275 269 257 251 252 248 244 247 249 248 231 239 232 217 216 225 228 231 233 237 242 247 252 260 266 265 262
303 296 289 289 298 299 297 295 298 297 292 276 264 265 270 270 276 268 261 248 250 249 243 245 246 254 258 233 219 229 244 221 223 230 232 235 241 249 248 251 257 265 266
299 291 281 292 299 303 301 298 300 283 290 295 288 276 274 277 276 274 261 251 239 241 244 253 265 244 240 214 224 237 202 224 219 229 233 237 239 240 243 248 259 272 271
298 287 278 296 300 307 301 288 274 277 291 311 293 271 281 282 279 265 264 260 242 242 241 244 258 259 257 239 214 228 227 229 227 237 237 242 244 247 248 254 258 267 267
296 290 288 295 297 303 292 283 268 280 289 299 308 308 309 299 303 265 251 256 255 253 242 240 243 248 257 246 260 226 232 236 236 236 239 243 248 250 254 261 263 262 266
296 295 293 294 293 295 272 245 261 283 319 321 309 305 302 285 305 308 260 251 247 268 244 232 236 239 231 247 257 243 236 238 242 241 243 245 246 251 256 258 259 255 257
303 297 295 292 287 278 228 233 284 316 352 326 324 318 313 316 314 332 325 236 232 233 238 231 236 238 235 237 240 242 244 244 241 243 246 246 245 247 248 258 255 253 255
296 296 287 283 257 248 220 197 275 133 62 20 8 343 327 333 340 341 20 36 263 217 224 231 231 234 236 238 241 241 241 245 246 244 244 242 247 247 249 247 246 245 245
303 302 285 254 246 194 187 188 266 173 116 26 16 0 355 348 342 341 353 329 295 273 242 230 230 239 230 232 234 235 239 242 245 246 238 241 248 244 239 246 242 246 244
303 347 300 257 196 187 173 211 236 177 258 20 359 2 12 7 354 339 339 343 334 319 235 259 272 258 238 225 225 224 227 239 240 240 237 236 237 236 232 237 241 246 248
284 303 347 258 206 210 237 267 189 189 187 264 239 31 15 27 13 346 337 337 322 301 237 232 229 215 236 237 241 243 244 238 237 235 235 236 236 236 236 239 238 236 232
252 313 316 322 302 244 215 263 241 169 242 251 306 39 5 354 11 356 11 1 358 356 357 24 113 144 174 213 225 227 225 226 226 225 225 227 227 227 230 233 234 235 240
219 238 268 302 310 154 249 271 89 63 23 16 239 274 350 335 334 269 345 8 18 39 36 16 34 117 155 169 196 207 206 206 211 216 218 220 218 220 226 230 232 234 237
240 220 218 195 286 339 352 215 117 168 107 353 325 2 360 344 279 209 27 52 47 45 38 24 332 241 179 155 147 163 216 219 210 207 217 229 231 229 229 231 233 238 247
234 189 204 244 247 241 57 256 252 27 340 349 334 344 338 324 21 104 15 17 7 14 23 9 333 277 235 203 204 215 243 246 237 229 223 228 230 237 244 244 242 239 246
223 249 238 243 244 220 198 217 228 232 278 181 284 294 340 7 223 233 252 295 320 222 310 359 354 194 237 273 320 305 315 312 270 276 277 252 256 256 252 252 259 261 266
233 292 257 253 257 262 266 248 255 285 222 146 230 244 233 277 303 319 263 262 237 305 325 343 340 340 254 270 320 294 300 287 267 286 288 266 266 261 265 269 265 267 272
285 221 226 264 237 269 281 303 239 201 238 229 236 252 290 198 295 294 299 259 252 260 278 288 266 259 272 304 283 291 286 295 294 298 276 268 270 260 259 265 270 271 266
Height
3168 3164 3161 3160 3159 3156 3155 3154 3153 3152 3151 3151 3151 3152 3152 3151 3151 3150 3153 3156 3158 3160 3163 3166 3170 3172 3172 3172 3174 3173 3172 3172 3167 3164 3164 3164 3165 3166 3167 3168 3168 3169 3168
3160 3157 3154 3150 3148 3145 3143 3142 3141 3139 3140 3140 3140 3140 3141 3142 3141 3139 3141 3144 3147 3151 3154 3156 3159 3163 3164 3166 3166 3168 3168 3168 3166 3163 3162 3161 3161 3162 3163 3163 3163 3163 3163
3152 3147 3144 3140 3137 3133 3130 3129 3129 3128 3127 3127 3127 3127 3129 3129 3130 3130 3131 3133 3136 3139 3142 3146 3149 3152 3155 3158 3157 3160 3162 3163 3161 3158 3158 3157 3157 3157 3158 3158 3157 3157 3156
3141 3137 3133 3129 3125 3122 3120 3118 3117 3116 3114 3114 3114 3113 3114 3116 3118 3119 3121 3123 3123 3127 3131 3135 3138 3142 3145 3150 3151 3151 3153 3155 3155 3153 3153 3153 3153 3154 3153 3153 3152 3152 3152
3131 3126 3122 3118 3114 3112 3110 3108 3106 3104 3104 3102 3101 3101 3102 3103 3106 3108 3109 3111 3113 3115 3118 3124 3127 3129 3136 3140 3143 3144 3143 3144 3147 3147 3149 3148 3149 3150 3150 3148 3148 3148 3148
3120 3116 3112 3108 3104 3102 3101 3099 3096 3094 3093 3091 3089 3089 3090 3092 3094 3096 3096 3097 3100 3102 3105 3110 3113 3121 3123 3126 3129 3135 3134 3134 3138 3141 3142 3142 3144 3145 3145 3143 3143 3143 3143
3111 3106 3101 3098 3095 3093 3091 3089 3087 3084 3082 3080 3079 3079 3078 3080 3083 3083 3084 3085 3087 3090 3093 3098 3101 3104 3107 3112 3116 3122 3123 3123 3126 3132 3133 3135 3138 3138 3138 3139 3138 3138 3138
3100 3095 3092 3089 3086 3084 3080 3079 3076 3073 3072 3070 3070 3069 3069 3070 3071 3072 3072 3073 3074 3078 3083 3086 3086 3088 3089 3091 3100 3104 3107 3110 3114 3121 3124 3127 3128 3128 3129 3131 3131 3131 3131
3090 3085 3083 3080 3077 3074 3071 3068 3065 3062 3060 3058 3058 3059 3059 3060 3060 3059 3059 3061 3062 3065 3069 3072 3073 3075 3073 3077 3085 3087 3089 3097 3106 3109 3113 3117 3118 3119 3121 3123 3124 3124 3124
3080 3076 3073 3071 3069 3066 3062 3058 3056 3053 3050 3047 3048 3049 3049 3049 3049 3048 3048 3049 3050 3053 3056 3057 3058 3060 3062 3063 3075 3067 3058 3083 3090 3098 3103 3106 3109 3110 3111 3113 3114 3116 3116
3071 3068 3066 3064 3061 3057 3054 3051 3049 3046 3043 3041 3040 3040 3041 3040 3039 3038 3038 3038 3039 3042 3045 3045 3038 3047 3051 3054 3055 3056 3058 3048 3077 3085 3093 3096 3098 3099 3102 3104 3106 3106 3107
3063 3060 3058 3056 3054 3050 3047 3046 3044 3041 3039 3036 3035 3035 3035 3033 3031 3030 3030 3030 3031 3034 3038 3041 3042 3042 3031 3037 3047 3040 3057 3063 3070 3078 3083 3085 3088 3091 3093 3095 3097 3098 3098
3055 3053 3051 3049 3048 3043 3042 3040 3039 3039 3035 3031 3032 3031 3029 3028 3025 3022 3023 3025 3026 3026 3029 3034 3036 3038 3039 3030 3007 3043 3049 3059 3065 3070 3073 3077 3080 3083 3084 3086 3088 3089 3090
3047 3046 3043 3041 3039 3037 3034 3035 3035 3034 3032 3031 3030 3028 3026 3025 3022 3018 3017 3017 3019 3021 3022 3024 3028 3031 3034 3035 3035 3041 3047 3052 3056 3060 3065 3068 3070 3072 3075 3077 3078 3080 3080
3040 3038 3035 3033 3032 3030 3029 3030 3031 3030 3029 3029 3027 3026 3024 3021 3019 3016 3012 3013 3014 3015 3017 3018 3021 3024 3028 3031 3034 3037 3039 3044 3048 3051 3054 3057 3060 3063 3066 3068 3070 3071 3072
3034 3031 3028 3026 3025 3025 3026 3026 3028 3027 3027 3027 3026 3024 3022 3019 3017 3015 3013 3011 3011 3010 3013 3014 3017 3018 3021 3024 3027 3030 3032 3036 3039 3042 3045 3049 3052 3055 3057 3060 3060 3064 3066
3029 3024 3020 3019 3018 3020 3021 3023 3026 3026 3024 3025 3025 3023 3020 3019 3017 3014 3012 3012 3012 3012 3011 3013 3015 3016 3018 3021 3024 3025 3028 3030 3033 3034 3037 3041 3044 3047 3051 3052 3054 3057 3058
3026 3021 3018 3015 3014 3015 3019 3022 3021 3022 3023 3023 3024 3022 3020 3017 3016 3015 3015 3014 3013 3013 3013 3012 3013 3016 3017 3019 3020 3022 3024 3026 3028 3030 3033 3035 3038 3040 3043 3046 3049 3051 3051
3023 3021 3018 3015 3014 3016 3018 3018 3018 3020 3021 3021 3021 3021 3020 3018 3017 3015 3015 3015 3014 3012 3012 3013 3013 3013 3015 3017 3019 3020 3022 3024 3026 3028 3030 3032 3034 3036 3038 3041 3043 3044 3045
3020 3018 3017 3016 3014 3014 3014 3016 3017 3019 3020 3019 3020 3020 3019 3019 3017 3015 3015 3014 3013 3013 3011 3011 3012 3013 3014 3016 3017 3018 3019 3021 3024 3025 3027 3030 3031 3032 3034 3037 3038 3039 3040
3017 3018 3018 3017 3014 3013 3015 3013 3014 3016 3016 3017 3017 3018 3017 3017 3016 3015 3015 3016 3015 3014 3012 3012 3013 3014 3014 3016 3017 3018 3018 3020 3021 3024 3025 3027 3028 3029 3031 3032 3034 3035 3036
3015 3016 3017 3016 3016 3015 3013 3011 3013 3015 3015 3016 3017 3017 3016 3015 3014 3015 3016 3016 3017 3015 3015 3015 3014 3015 3015 3016 3017 3018 3019 3021 3022 3023 3024 3026 3027 3028 3029 3030 3031 3032 3033
3013 3013 3015 3015 3016 3015 3013 3013 3014 3013 3015 3014 3016 3016 3016 3016 3014 3015 3015 3015 3016 3015 3015 3015 3015 3016 3017 3018 3019 3018 3019 3020 3021 3023 3024 3025 3025 3025 3026 3026 3027 3028 3028
3012 3013 3013 3014 3015 3014 3013 3014 3013 3013 3013 3013 3014 3014 3014 3014 3014 3015 3015 3015 3013 3014 3013 3013 3014 3015 3017 3017 3018 3018 3018 3020 3020 3020 3020 3020 3020 3020 3021 3021 3022 3022 3023
3011 3011 3011 3010 3011 3011 3011 3010 3010 3011 3011 3011 3011 3010 3010 3010 3011 3011 3012 3013 3012 3013 3012 3013 3013 3014 3015 3016 3016 3016 3017 3018 3018 3017 3017 3016 3017 3017 3016 3017 3018 3019 3019
3007 3008 3006 3007 3006 3006 3007 3006 3005 3007 3009 3010 3010 3008 3008 3007 3010 3009 3010 3010 3009 3008 3009 3009 3011 3012 3013 3014 3014 3014 3014 3013 3013 3012 3012 3012 3012 3012 3012 3013 3013 3013 3013